[[{"header":{"parameterUnit":"m.s-1","parameterCategory":1,"la1":30.2991,"la2":30.254,"lo1":-89.0895,"lo2":-89.0444,"dy":0.0017,"dx":0.0017,"nx":28,"ny":28,"refTime":"2026-02-03T09:00:00:Z","depth":0,"parameterNumber":2,"parameterNumberName":"U-component_of_WINDS"},"data":[0,0,0,0,0,0,0,0,0,0,0,0,0,0,0,0,0,0,0,0,0,0,0,0,0,0,0,0,0,0,0,0,0,0,0,0,0,0,0,0,0,0,0,0,0,0,0,0,0,0,0,0,0,0,0,0,0,0,2.4784,2.4784,0,2.4774,2.4774,2.4773,2.4733,2.4732,2.4731,2.473,2.472,2.472,2.4721,0,0,0,0,0,0,0,0,0,0,0,0,0,2.4769,2.4769,2.4784,2.4784,2.4783,2.4774,2.4774,2.4773,2.4733,2.4732,2.4731,2.473,2.472,2.472,2.4721,0,0,0,0,0,0,0,0,0,0,0,0,0,2.4769,2.4769,2.4784,2.4762,2.476,2.4774,2.4774,2.4773,2.4733,2.4732,2.4731,2.4729,2.4719,2.472,2.4721,2.4754,0,0,2.4724,2.4724,0,0,0,0,0,0,0,0,2.4769,2.4769,2.4765,2.4764,2.4761,2.4753,2.4764,2.4767,2.4734,2.4744,2.473,2.4729,2.4732,2.4732,2.4733,2.4754,2.4753,2.4724,2.4724,2.4725,2.4725,0,0,0,0,0,0,0,2.4769,2.4769,2.478,2.4765,2.4763,2.4753,2.4752,2.4765,2.4746,2.4743,2.474,2.4739,2.4731,2.4732,2.4732,2.4753,2.4724,2.4725,2.4725,2.4725,2.4802,2.4804,0,0,0,0,0,0,2.4772,2.477,2.478,2.4779,2.4762,2.4755,2.4753,2.4757,2.4745,2.4742,2.474,2.4737,2.4731,2.4731,2.4732,2.477,2.4725,2.4725,2.4726,2.4801,2.4803,2.4804,0,0,0,0,0,0,2.4772,2.4773,2.478,2.4774,2.4774,2.4756,2.4762,2.4758,2.4759,2.4744,2.474,2.4745,2.473,2.4731,2.4749,2.4769,2.4726,2.4727,2.4799,2.4801,2.4803,2.4848,0,0,0,0,0,0,2.4771,2.4773,2.4785,2.4774,2.4774,2.4798,2.4763,2.4759,2.4761,2.4757,2.4747,2.4744,2.4729,2.4748,2.475,2.477,2.4727,2.4797,2.48,2.4803,2.4844,2.4851,2.4857,0,0,0,0,0,2.4771,2.4798,2.4786,2.4788,2.4789,2.4799,2.4799,2.4781,2.4763,2.4775,2.4765,2.4745,2.4767,2.475,2.4752,2.4773,2.4796,2.4799,2.4802,2.4842,2.485,2.4857,0,0,0,0,0,0,2.4811,2.4796,2.4783,2.4807,2.4805,2.4792,2.4807,2.479,2.4793,2.4789,2.4766,2.4765,2.4787,2.4782,2.4763,2.4805,2.4778,2.4782,2.4807,2.4815,2.4821,2.4822,2.4728,0,0,0,0,0,2.4823,2.4832,2.4819,2.4841,2.4841,2.4825,2.4828,2.4814,2.4811,2.481,2.4801,2.4799,2.4805,2.481,2.4815,2.4844,2.4842,2.4859,2.4865,2.4871,2.4874,2.489,2.4897,2.4815,2.4815,2.4815,0,0,2.4847,2.484,2.4847,2.4849,2.4846,2.4856,2.4824,2.4836,2.4843,2.4811,2.4829,2.4823,2.4819,2.4843,2.4853,2.4839,2.4897,2.4875,2.4879,2.488,2.4894,2.4902,2.4909,2.4818,2.4817,2.4817,0,0,2.4896,2.4892,2.4911,2.4909,2.4904,2.4893,2.4898,2.4889,2.4883,2.4901,2.4877,2.4886,2.4898,2.4896,2.4897,2.4948,2.4929,2.495,2.4983,2.4998,2.5005,2.5011,2.5029,2.5036,2.4954,2.4954,2.4954,0,2.4927,2.4941,2.4923,2.4936,2.4938,2.4911,2.493,2.4929,2.4926,2.4929,2.4913,2.4928,2.4923,2.4947,2.496,2.4961,2.4966,2.495,2.5006,2.5011,2.5016,2.5033,2.504,2.4956,2.4956,2.4956,2.4956,0,2.4979,2.499,2.5006,2.5005,2.5008,2.5025,2.5009,2.5015,2.5002,2.4993,2.5012,2.5005,2.5009,2.5014,2.5001,2.5036,2.5028,2.501,2.4982,2.5027,2.5042,2.5049,2.496,2.4959,2.4958,2.4958,0,0,2.5052,2.5042,2.5048,2.5047,2.5041,2.5049,2.5065,2.5069,2.5075,2.5075,2.5088,2.5099,2.5083,2.5084,2.507,2.5084,2.5125,2.5064,2.5064,2.5076,2.5165,2.5178,2.5186,2.5114,2.5115,2.5116,2.5165,0,2.5099,2.5125,2.5109,2.5138,2.5148,2.5123,2.5137,2.5135,2.5128,2.5135,2.5127,2.5136,2.5113,2.5114,2.5126,2.5118,2.5143,2.5114,2.5125,2.5126,2.5126,2.5194,2.5208,2.5254,2.5171,2.5172,2.5173,0,2.5156,2.5159,2.5189,2.5183,2.5186,2.5199,2.5202,2.521,2.5208,2.5201,2.5204,2.5187,2.5203,2.5177,2.5198,2.5179,2.5183,2.518,2.5181,2.5181,2.5151,2.5195,2.5269,2.5276,2.5182,2.5181,2.5181,0,2.5206,2.5218,2.5237,2.5238,2.5231,2.5241,2.5238,2.5235,2.5239,2.5242,2.5244,2.5249,2.5251,2.5256,2.5242,2.5224,2.5265,2.5237,2.526,2.5261,2.5269,2.5269,2.5344,2.5273,2.5273,2.5273,2.5272,0,2.526,2.5279,2.526,2.5272,2.5293,2.5276,2.5297,2.5292,2.529,2.53,2.528,2.529,2.5271,2.528,2.5269,2.5289,2.529,2.5286,2.5282,2.5287,2.5288,2.5289,2.5285,2.5274,2.5274,2.5274,2.5273,0,2.5318,2.5306,2.5326,2.5318,2.5317,2.5333,2.5326,2.5337,2.5329,2.5343,2.5346,2.5333,2.5343,2.5329,2.5337,2.533,2.5357,2.5349,2.5358,2.5355,2.5379,2.5377,2.5457,2.5466,2.539,2.539,2.5391,0,2.5353,2.5367,2.5362,2.5368,2.5366,2.5376,2.5381,2.5365,2.537,2.537,2.5381,2.5389,2.5394,2.5411,2.5402,2.5409,2.54,2.5428,2.5401,2.5406,2.5401,2.54,2.5401,2.5433,2.5434,2.5435,2.5436,0,2.5416,2.5409,2.5416,2.5422,2.5428,2.5431,2.5433,2.544,2.5423,2.543,2.544,2.5444,2.5453,2.5462,2.5466,2.5463,2.5447,2.5445,2.545,2.5455,2.5459,2.5457,2.5372,2.5443,2.5442,2.5441,2.5441,2.5441,2.5463,2.5475,2.5473,2.5482,2.5482,2.5485,2.5495,2.5489,2.5497,2.5503,2.5494,2.5506,2.5505,2.5509,2.5509,2.5519,2.5507,2.5515,2.5517,2.5519,2.5522,2.5459,2.552,2.5519,2.5519,2.5519,2.5519,0,2.5524,2.5523,2.5531,2.5535,2.5542,2.5527,2.5529,2.5536,2.5548,2.5548,2.5554,2.5566,2.5575,2.5568,2.5575,2.5584,2.5577,2.5586,2.5585,2.5585,2.5533,2.5527,2.5592,2.5592,2.5592,2.5592,2.5592,2.5592,2.5557,2.5577,2.5571,2.5591,2.5589,2.5601,2.5604,2.5606,2.5607,2.5621,2.5628,2.5624,2.5622,2.5629,2.5636,2.5634,2.5637,2.5649,2.5645,2.5596,2.5589,2.5582,2.5576,2.565,2.5651,2.5696,2.5696,2.5697]},{"header":{"parameterUnit":"m.s-1","parameterCategory":1,"la1":30.2991,"la2":30.254,"lo1":-89.0895,"lo2":-89.0444,"dy":0.0017,"dx":0.0017,"nx":28,"ny":28,"refTime":"2026-02-03T09:00:00:Z","depth":0,"parameterNumber":3,"parameterNumberName":"V-component_of_WINDS"},"data":[0,0,0,0,0,0,0,0,0,0,0,0,0,0,0,0,0,0,0,0,0,0,0,0,0,0,0,0,0,0,0,0,0,0,0,0,0,0,0,0,0,0,0,0,0,0,0,0,0,0,0,0,0,0,0,0,0,0,-7.7015,-7.7017,0,-7.7201,-7.7203,-7.7205,-7.7139,-7.7135,-7.7131,-7.7127,-7.7312,-7.732,-7.7329,0,0,0,0,0,0,0,0,0,0,0,0,0,-7.6599,-7.6607,-7.7015,-7.7018,-7.702,-7.7201,-7.7203,-7.7206,-7.714,-7.7135,-7.713,-7.7125,-7.7309,-7.7319,-7.733,0,0,0,0,0,0,0,0,0,0,0,0,0,-7.6782,-7.661,-7.7015,-7.7009,-7.701,-7.72,-7.7203,-7.7206,-7.7141,-7.7135,-7.7128,-7.7123,-7.7305,-7.7318,-7.7331,-7.7536,0,0,-7.7371,-7.7377,0,0,0,0,0,0,0,0,-7.6772,-7.6797,-7.7007,-7.701,-7.7012,-7.7141,-7.7124,-7.7317,-7.7142,-7.7091,-7.7127,-7.712,-7.7259,-7.7276,-7.7324,-7.7545,-7.7553,-7.7372,-7.738,-7.7386,-7.739,0,0,0,0,0,0,0,-7.6759,-7.6789,-7.7088,-7.7011,-7.7013,-7.6996,-7.7015,-7.716,-7.7208,-7.7095,-7.7091,-7.7114,-7.7259,-7.7312,-7.7328,-7.7555,-7.7372,-7.7384,-7.7392,-7.7397,-7.7954,-7.7961,0,0,0,0,0,0,-7.6746,-7.6779,-7.7083,-7.7094,-7.6874,-7.7008,-7.7029,-7.7105,-7.7206,-7.7215,-7.7119,-7.711,-7.7292,-7.7313,-7.7334,-7.7582,-7.7386,-7.7398,-7.7406,-7.7947,-7.7956,-7.7963,0,0,0,0,0,0,-7.6737,-7.6774,-7.7075,-7.6935,-7.6972,-7.7022,-7.7108,-7.7112,-7.7165,-7.7224,-7.7232,-7.7164,-7.7288,-7.7316,-7.7487,-7.7587,-7.7404,-7.7416,-7.7939,-7.795,-7.7959,-7.8078,0,0,0,0,0,0,-7.6726,-7.6771,-7.6851,-7.6938,-7.698,-7.7227,-7.7114,-7.712,-7.7188,-7.7178,-7.7268,-7.7277,-7.7285,-7.7468,-7.75,-7.7602,-7.7426,-7.793,-7.7944,-7.7956,-7.8065,-7.8091,-7.8113,0,0,0,0,0,-7.6711,-7.6875,-7.6855,-7.6892,-7.7081,-7.7233,-7.7257,-7.7264,-7.7197,-7.7276,-7.7314,-7.7274,-7.7571,-7.7486,-7.7522,-7.7629,-7.7924,-7.794,-7.7955,-7.8055,-7.8086,-7.8113,0,0,0,0,0,0,-7.6796,-7.6886,-7.6865,-7.7062,-7.7141,-7.7221,-7.7322,-7.7297,-7.7395,-7.7381,-7.7384,-7.7405,-7.7582,-7.7622,-7.7526,-7.7833,-7.7737,-7.7761,-7.7801,-7.7831,-7.7854,-7.7841,-7.7437,0,0,0,0,0,-7.6839,-7.6956,-7.7027,-7.7195,-7.7235,-7.7272,-7.7338,-7.7338,-7.7418,-7.745,-7.7501,-7.7579,-7.7689,-7.7762,-7.7867,-7.8071,-7.8089,-7.8162,-7.8186,-7.8205,-7.8226,-7.8337,-7.837,-7.8014,-7.8014,-7.8014,0,0,-7.6926,-7.699,-7.7063,-7.7214,-7.7274,-7.7394,-7.73,-7.7431,-7.752,-7.7469,-7.7635,-7.7675,-7.7762,-7.7951,-7.8036,-7.799,-7.8328,-7.8225,-7.824,-7.825,-7.8356,-7.839,-7.842,-7.8025,-7.8023,-7.8021,0,0,-7.7147,-7.7208,-7.7354,-7.7417,-7.7511,-7.7534,-7.757,-7.7655,-7.768,-7.7847,-7.7812,-7.7916,-7.8107,-7.8171,-7.8228,-7.8475,-7.8442,-7.8509,-7.8634,-7.8743,-7.8771,-7.8796,-7.8884,-7.8916,-7.8529,-7.8529,-7.853,0,-7.7244,-7.7426,-7.7432,-7.7567,-7.7634,-7.7596,-7.7744,-7.7804,-7.7926,-7.7973,-7.7919,-7.8159,-7.8215,-7.8418,-7.8479,-7.8526,-7.8566,-7.8499,-7.8766,-7.8791,-7.8815,-7.8899,-7.8933,-7.8537,-7.8536,-7.8535,-7.8535,0,-7.754,-7.7667,-7.7773,-7.7895,-7.7974,-7.8115,-7.8141,-7.822,-7.8213,-7.8242,-7.8412,-7.8478,-7.8596,-7.8644,-7.8637,-7.8847,-7.8816,-7.8765,-7.8668,-7.8856,-7.8936,-7.8968,-7.8548,-7.8545,-7.8543,-7.8541,0,0,-7.782,-7.7945,-7.7984,-7.804,-7.814,-7.8237,-7.8376,-7.8494,-7.8561,-7.8647,-7.8763,-7.8926,-7.888,-7.8945,-7.8945,-7.904,-7.9232,-7.8977,-7.8979,-7.9023,-7.9468,-7.9507,-7.9544,-7.9211,-7.9217,-7.9222,-7.9461,0,-7.8051,-7.8297,-7.8307,-7.853,-7.8647,-7.8612,-7.8733,-7.8807,-7.8838,-7.894,-7.8973,-7.9089,-7.9019,-7.9059,-7.9151,-7.9189,-7.9322,-7.9172,-7.9318,-7.9323,-7.9298,-7.9586,-7.9627,-7.9849,-7.9492,-7.9498,-7.9501,0,-7.8352,-7.845,-7.8686,-7.8771,-7.882,-7.8929,-7.9038,-7.9137,-7.922,-7.9235,-7.931,-7.9296,-7.9436,-7.9335,-7.9529,-7.9427,-7.9487,-7.9515,-7.9523,-7.9538,-7.9424,-7.9608,-7.9921,-7.9954,-7.955,-7.9546,-7.9543,0,-7.8534,-7.8724,-7.889,-7.8938,-7.9042,-7.9119,-7.9165,-7.9242,-7.9313,-7.9408,-7.9453,-7.9562,-7.9622,-7.9706,-7.9722,-7.9647,-7.9916,-7.9816,-7.9932,-7.9932,-7.9991,-7.9987,-8.0318,-8.0029,-8.0028,-8.0028,-8.0027,0,-7.8791,-7.8937,-7.8974,-7.9076,-7.9238,-7.9248,-7.9407,-7.9448,-7.9517,-7.9625,-7.9601,-7.9703,-7.9717,-7.9822,-7.9835,-7.9994,-8.002,-8.0036,-8.0038,-8.0039,-8.0038,-8.0079,-8.0064,-8.0037,-8.0035,-8.0033,-8.0031,0,-7.9022,-7.9053,-7.9231,-7.9315,-7.934,-7.9456,-7.9526,-7.9624,-7.9652,-7.979,-7.9822,-7.9866,-7.9989,-8.0013,-8.0157,-8.0166,-8.0355,-8.0341,-8.0328,-8.0327,-8.0442,-8.0431,-8.0812,-8.0862,-8.0539,-8.0543,-8.0545,0,-7.9184,-7.9296,-7.9392,-7.9464,-7.9515,-7.9631,-7.9703,-7.9717,-7.9793,-7.9897,-7.9981,-8.0102,-8.0199,-8.0396,-8.044,-8.0551,-8.0539,-8.0665,-8.0555,-8.0553,-8.0542,-8.0536,-8.0547,-8.0686,-8.0689,-8.0692,-8.0695,0,-7.9469,-7.9479,-7.9585,-7.9698,-7.9786,-7.9874,-7.9958,-8.0018,-8.0042,-8.0129,-8.0256,-8.0331,-8.048,-8.0599,-8.071,-8.0755,-8.073,-8.0729,-8.0762,-8.0764,-8.0753,-8.0761,-8.0386,-8.072,-8.0717,-8.0716,-8.0714,-8.0713,-7.9671,-7.9769,-7.9853,-7.9972,-8.0037,-8.0117,-8.0213,-8.0254,-8.0361,-8.0484,-8.0485,-8.0623,-8.0703,-8.0849,-8.0902,-8.1009,-8.0969,-8.1017,-8.1029,-8.1041,-8.1052,-8.0735,-8.1029,-8.1028,-8.1028,-8.1027,-8.1027,0,-7.9955,-8.0008,-8.0118,-8.0237,-8.0331,-8.0301,-8.0392,-8.0472,-8.0595,-8.0673,-8.077,-8.0915,-8.1031,-8.1085,-8.12,-8.1275,-8.1266,-8.1305,-8.13,-8.1311,-8.1081,-8.1041,-8.131,-8.131,-8.131,-8.131,-8.131,-8.131,-8.0114,-8.0279,-8.03,-8.0496,-8.0547,-8.0684,-8.0739,-8.0812,-8.0874,-8.1039,-8.1136,-8.1171,-8.1239,-8.1358,-8.1463,-8.1476,-8.1519,-8.1564,-8.1571,-8.1355,-8.1327,-8.1299,-8.1262,-8.1573,-8.1574,-8.1792,-8.1794,-8.1796]}]]